Date,TemperatureHighF,TemperatureAvgF,TemperatureLowF,DewpointHighF,DewpointAvgF,DewpointLowF,HumidityHigh,HumidityAvg,HumidityLow,PressureMaxIn,PressureMinIn,WindSpeedMaxMPH,WindSpeedAvgMPH,GustSpeedMaxMPH,PrecipitationSumIn
2013-7-1,85.8,70.2,51.4,59.1,49.6,41.9,96,56,24,28.97,28.85,9,2,13,0.00
2013-7-2,82.6,68.2,53.4,61.1,51.8,44.6,95,61,32,28.94,28.82,9,2,10,0.00
2013-7-3,83.1,64.8,47.3,57.5,51.7,44.9,97,67,31,28.91,28.76,6,1,10,0.00
2013-7-4,88.9,71.8,54.0,61.9,54.4,49.3,98,61,29,28.85,28.76,12,2,17,0.00
2013-7-5,89.8,74.7,56.1,63.8,56.8,51.0,96,59,29,28.82,28.70,16,2,24,0.00
2013-7-6,91.0,77.4,65.5,63.1,60.0,56.1,85,58,33,28.79,28.70,11,2,18,0.00
2013-7-7,91.9,78.8,65.1,70.0,64.9,61.4,92,66,39,28.73,28.64,11,2,18,0.00
2013-7-8,96.6,81.3,72.0,72.8,68.7,63.8,91,68,39,28.76,28.64,6,2,10,0.00
2013-7-9,88.7,76.8,66.9,76.3,69.3,65.6,98,80,51,28.79,28.58,9,2,14,0.16
2013-7-10,82.4,73.1,57.7,68.2,54.3,45.8,86,55,31,28.82,28.61,12,4,18,0.00
2013-7-11,90.5,66.5,53.6,62.6,55.3,51.9,96,72,31,28.91,28.82,6,0,6,0.00
2013-7-12,85.8,70.6,54.7,64.9,54.8,48.1,97,64,30,28.91,28.82,20,4,20,0.00
2013-7-13,83.8,71.6,62.2,62.7,57.7,51.7,91,64,34,28.94,28.82,21,4,21,0.00
2013-7-14,90.5,75.1,56.5,66.4,60.0,54.0,98,65,31,29.03,28.94,17,3,17,0.00
2013-7-15,93.4,72.9,62.4,71.3,65.0,61.3,98,80,39,29.09,28.97,8,1,8,0.00
2013-7-16,99.0,87.6,69.6,75.5,69.0,63.9,97,57,36,29.06,29.00,13,3,13,0.00
2013-7-17,100.2,85.2,70.0,75.7,68.1,60.8,97,62,30,29.09,28.94,13,2,13,0.00
2013-7-18,99.0,84.9,70.2,74.9,67.8,63.0,95,61,34,28.97,28.64,13,3,13,0.00
2013-7-19,95.0,82.8,65.3,70.8,63.4,53.1,82,54,29,28.64,28.53,17,6,17,0.08
2013-7-20,90.5,73.7,57.7,65.2,58.3,52.9,96,63,31,28.73,28.61,8,2,8,0.00
2013-7-21,75.9,66.7,60.3,66.1,59.8,54.2,98,79,53,28.76,28.64,16,4,16,0.94
2013-7-22,89.2,72.8,57.9,71.6,62.8,57.1,98,74,45,28.67,28.41,22,3,22,0.01
2013-7-23,76.8,67.5,47.8,64.2,52.4,45.3,95,61,36,28.85,28.53,16,6,16,0.00
2013-7-24,82.4,69.9,47.7,57.0,49.6,42.8,98,53,30,28.88,28.73,8,2,8,0.00
2013-7-25,83.8,66.2,52.3,66.6,58.4,50.7,97,78,44,28.85,28.70,13,3,13,0.34
2013-7-26,81.0,68.5,56.5,67.3,57.7,46.0,98,72,34,28.76,28.64,20,6,20,0.02
2013-7-27,63.7,55.2,48.7,50.3,45.0,38.7,92,70,44,28.79,28.70,15,7,15,0.03
2013-7-28,69.6,58.8,49.6,53.4,48.9,45.4,98,72,44,28.85,28.64,15,6,15,0.03
2013-7-29,82.2,66.0,51.8,57.4,51.5,45.6,98,65,33,29.00,28.82,10,2,10,0.00
2013-7-30,82.8,66.9,53.2,65.3,55.9,51.2,98,72,38,29.00,28.85,15,3,15,0.00
2013-7-31,84.9,70.0,60.3,66.6,60.7,55.1,97,75,41,28.91,28.76,16,3,16,0.05